Time,TemperatureF,DewpointF,PressureIn,WindDirection,WindDirectionDegrees,WindSpeedMPH,WindSpeedGustMPH,Humidity,HourlyPrecipIn,Conditions,Clouds,dailyrainin,SoftwareType,DateUTC
2013-04-04 00:02:00,31.0,27.0,-100.00,ESE,120,5.0,5.0,83,-99.99,,,-99.99,,2013-04-04 06:02:00,
2013-04-04 00:12:00,31.0,27.0,-100.00,ESE,120,5.0,5.0,83,-99.99,,,-99.99,,2013-04-04 06:12:00,
2013-04-04 01:52:00,31.0,26.0,-100.00,SE,135,5.0,6.0,82,-99.99,,,-99.99,,2013-04-04 07:52:00,
2013-04-04 02:02:00,31.0,26.0,-100.00,SE,135,5.0,6.0,82,-99.99,,,-99.99,,2013-04-04 08:02:00,
2013-04-04 02:12:00,31.0,26.0,-100.00,SE,135,5.0,6.0,82,-99.99,,,-99.99,,2013-04-04 08:12:00,
2013-04-04 02:52:00,31.0,26.0,-100.00,SSE,147,4.0,5.0,84,-99.99,,,-99.99,,2013-04-04 08:52:00,
2013-04-04 03:02:00,31.0,26.0,-100.00,SSE,147,4.0,5.0,84,-99.99,,,-99.99,,2013-04-04 09:02:00,
2013-04-04 03:12:00,31.0,26.0,-100.00,SSE,147,4.0,5.0,84,-99.99,,,-99.99,,2013-04-04 09:12:00,
2013-04-04 03:53:00,31.0,26.0,-100.00,East,94,3.0,3.0,81,-99.99,,,-99.99,,2013-04-04 09:53:00,
2013-04-04 04:03:00,31.0,26.0,-100.00,East,94,3.0,3.0,81,-99.99,,,-99.99,,2013-04-04 10:03:00,
2013-04-04 04:12:00,31.0,26.0,-100.00,East,94,3.0,3.0,81,-99.99,,,-99.99,,2013-04-04 10:12:00,
2013-04-04 04:53:00,33.0,27.0,-100.00,SE,142,1.0,3.0,79,-99.99,,,-99.99,,2013-04-04 10:53:00,
2013-04-04 05:02:00,33.0,27.0,-100.00,SE,142,1.0,3.0,79,-99.99,,,-99.99,,2013-04-04 11:02:00,
2013-04-04 05:12:00,33.0,27.0,-100.00,SE,142,1.0,3.0,79,-99.99,,,-99.99,,2013-04-04 11:12:00,
2013-04-04 05:53:00,31.0,27.0,-100.00,SE,134,3.0,4.0,83,-99.99,,,-99.99,,2013-04-04 11:53:00,
2013-04-04 06:02:00,31.0,27.0,-100.00,SE,134,3.0,4.0,83,-99.99,,,-99.99,,2013-04-04 12:02:00,
2013-04-04 06:12:00,31.0,27.0,-100.00,SE,134,3.0,4.0,83,-99.99,,,-99.99,,2013-04-04 12:12:00,
2013-04-04 07:52:00,29.0,26.0,-100.00,ESE,122,4.0,5.0,89,-99.99,,,-99.99,,2013-04-04 13:52:00,
2013-04-04 08:02:00,29.0,26.0,-100.00,ESE,122,4.0,5.0,89,-99.99,,,-99.99,,2013-04-04 14:02:00,
2013-04-04 08:12:00,29.0,26.0,-100.00,ESE,122,4.0,5.0,89,-99.99,,,-99.99,,2013-04-04 14:12:00,
2013-04-04 08:52:00,35.0,28.0,-100.00,SE,130,3.0,5.0,77,-99.99,,,-99.99,,2013-04-04 14:52:00,
2013-04-04 09:12:00,35.0,28.0,-100.00,SE,130,3.0,5.0,77,-99.99,,,-99.99,,2013-04-04 15:12:00,
2013-04-04 09:53:00,45.0,31.0,-100.00,SSW,207,8.0,11.0,57,-99.99,,,-99.99,,2013-04-04 15:53:00,
2013-04-04 10:53:00,47.0,31.0,-100.00,West,263,8.0,12.0,54,-99.99,,,-99.99,,2013-04-04 16:53:00,
2013-04-04 11:02:00,47.0,31.0,-100.00,West,263,8.0,12.0,54,-99.99,,,-99.99,,2013-04-04 17:02:00,
2013-04-04 11:13:00,47.0,31.0,-100.00,West,263,8.0,12.0,54,-99.99,,,-99.99,,2013-04-04 17:13:00,
2013-04-04 11:52:00,49.0,32.0,-100.00,WSW,257,5.0,10.0,50,-99.99,,,-99.99,,2013-04-04 17:52:00,
2013-04-04 12:02:00,49.0,32.0,-100.00,WSW,257,5.0,10.0,50,-99.99,,,-99.99,,2013-04-04 18:02:00,
2013-04-04 12:12:00,49.0,32.0,-100.00,WSW,257,5.0,10.0,50,-99.99,,,-99.99,,2013-04-04 18:12:00,
2013-04-04 13:52:00,50.0,30.0,-100.00,SW,224,7.0,14.0,45,-99.99,,,-99.99,,2013-04-04 19:52:00,
2013-04-04 14:03:00,50.0,30.0,-100.00,SW,224,7.0,14.0,45,-99.99,,,-99.99,,2013-04-04 20:03:00,
2013-04-04 14:12:00,50.0,30.0,-100.00,SW,224,7.0,14.0,45,-99.99,,,-99.99,,2013-04-04 20:12:00,
2013-04-04 14:53:00,52.0,30.0,-100.00,WSW,254,11.0,16.0,42,-99.99,,,-99.99,,2013-04-04 20:53:00,
2013-04-04 15:02:00,52.0,30.0,-100.00,WSW,254,11.0,16.0,42,-99.99,,,-99.99,,2013-04-04 21:02:00,
2013-04-04 15:12:00,52.0,30.0,-100.00,WSW,254,11.0,16.0,42,-99.99,,,-99.99,,2013-04-04 21:12:00,
2013-04-04 15:53:00,53.0,29.0,-100.00,SW,234,7.0,13.0,40,-99.99,,,-99.99,,2013-04-04 21:53:00,
2013-04-04 16:03:00,53.0,29.0,-100.00,SW,234,7.0,13.0,40,-99.99,,,-99.99,,2013-04-04 22:03:00,
2013-04-04 16:12:00,53.0,29.0,-100.00,SW,234,7.0,13.0,40,-99.99,,,-99.99,,2013-04-04 22:12:00,
2013-04-04 16:53:00,51.0,28.0,-100.00,SW,225,9.0,19.0,41,-99.99,,,-99.99,,2013-04-04 22:53:00,
2013-04-04 17:02:00,51.0,28.0,-100.00,SW,225,9.0,19.0,41,-99.99,,,-99.99,,2013-04-04 23:02:00,
2013-04-04 17:12:00,51.0,28.0,-100.00,SW,225,9.0,19.0,41,-99.99,,,-99.99,,2013-04-04 23:12:00,
2013-04-04 17:52:00,47.0,32.0,-100.00,WSW,250,1.0,2.0,55,-99.99,,,-99.99,,2013-04-04 23:52:00,
2013-04-04 18:02:00,47.0,32.0,-100.00,WSW,250,1.0,2.0,55,-99.99,,,-99.99,,2013-04-05 00:02:00,
2013-04-04 18:12:00,47.0,32.0,-100.00,WSW,250,1.0,2.0,55,-99.99,,,-99.99,,2013-04-05 00:12:00,
2013-04-04 18:52:00,48.0,31.0,-100.00,ESE,102,1.0,2.0,52,-99.99,,,-99.99,,2013-04-05 00:52:00,
2013-04-04 19:02:00,48.0,31.0,-100.00,ESE,102,1.0,2.0,52,-99.99,,,-99.99,,2013-04-05 01:02:00,
2013-04-04 19:12:00,48.0,31.0,-100.00,ESE,102,1.0,2.0,52,-99.99,,,-99.99,,2013-04-05 01:12:00,
2013-04-04 19:53:00,46.0,31.0,-100.00,SSE,156,2.0,4.0,56,-99.99,,,-99.99,,2013-04-05 01:53:00,
2013-04-04 20:02:00,46.0,31.0,-100.00,SSE,156,2.0,4.0,56,-99.99,,,-99.99,,2013-04-05 02:02:00,
2013-04-04 20:12:00,46.0,31.0,-100.00,SSE,156,2.0,4.0,56,-99.99,,,-99.99,,2013-04-05 02:12:00,
2013-04-04 20:52:00,43.0,32.0,-100.00,WNW,298,5.0,12.0,64,-99.99,,,-99.99,,2013-04-05 02:52:00,
2013-04-04 21:02:00,43.0,32.0,-100.00,WNW,298,5.0,12.0,64,-99.99,,,-99.99,,2013-04-05 03:02:00,
2013-04-04 21:12:00,43.0,32.0,-100.00,WNW,298,5.0,12.0,64,-99.99,,,-99.99,,2013-04-05 03:12:00,
2013-04-04 21:53:00,38.0,35.0,-100.00,ESE,118,5.0,7.0,88,-99.99,,,-99.99,,2013-04-05 03:53:00,
2013-04-04 22:02:00,38.0,35.0,-100.00,ESE,118,5.0,7.0,88,-99.99,,,-99.99,,2013-04-05 04:02:00,
2013-04-04 22:12:00,38.0,35.0,-100.00,ESE,118,5.0,7.0,88,-99.99,,,-99.99,,2013-04-05 04:12:00,
2013-04-04 22:52:00,41.0,35.0,-100.00,SW,227,8.0,16.0,77,-99.99,,,-99.99,,2013-04-05 04:52:00,
2013-04-04 23:02:00,41.0,35.0,-100.00,SW,227,8.0,16.0,77,-99.99,,,-99.99,,2013-04-05 05:02:00,
2013-04-04 23:12:00,41.0,35.0,-100.00,SW,227,8.0,16.0,77,-99.99,,,-99.99,,2013-04-05 05:12:00,
2013-04-04 23:52:00,40.0,35.0,-100.00,SW,214,6.0,9.0,82,-99.99,,,-99.99,,2013-04-05 05:52:00,